Home > Weather > Korneuburg > Past weeks

Flag for Austria Past Weather in Korneuburg, Lower Austria, Austria — Yesterday and Last 2 Weeks

Now
68 °F

Mild.


Feels Like: 68 °F
Forecast: 57 / 76 °F
Wind: 1 mph from South

Location: Wien / Hohe Warte

Current Time: Aug 29, 2016 at 2:30:59 AM

Latest Report: Aug 29, 2016 at 1:00 AM


Visibility: N/A

Pressure: 29.99 "Hg

Humidity: 76%

Dew Point: 60 °F

Location of KorneuburgLocation

Past Weather in Korneuburg — Graph

°F

Korneuburg Temperature Yesterday

Maximum temperature yesterday: 88 °F (at 4:00 PM)
Minimum temperature yesterday: 64 °F (at 7:00 AM)
Average temperature yesterday: 78 °F

High & Low Weather Summary for the Past Weeks

 TemperatureHumidityPressure
High88 °F (Aug 28, 4:00 PM)96% (Aug 14, 6:00 AM)30.35 "Hg (Aug 14, 6:00 AM)
Low54 °F (Aug 18, 6:00 AM)38% (Aug 26, 4:00 PM)29.78 "Hg (Aug 18, 5:00 PM)
Average70 °F67%30.08 "Hg
* Reported Aug 14 1:00 AM — Aug 29 1:00 AM, Korneuburg, Weather by CustomWeather, © 2016

Note: Actual official high and low records may vary slightly from our data, if they occured in-between our weather recording intervals... More about our weather records

Advertising

Korneuburg Weather History for the Previous 24 Hours

Scroll right to see more
 ConditionsComfort  
Time TempWeatherWind HumidityBarometerVisibility
1:00 AM
Mon, Aug 29
68 °FMild.1 mph76%29.99 "HgN/A
12:00 AM69 °FMild.1 mph73%29.99 "HgN/A
11:00 PM
Sun, Aug 28
73 °FMild.1 mph63%29.99 "HgN/A
10:00 PM76 °FClear.2 mph56%29.98 "Hg16 mi
9:00 PM78 °FClear.3 mph52%29.98 "Hg16 mi
8:00 PM79 °FWarm.3 mph51%29.97 "HgN/A
7:00 PM82 °FSunny.3 mph47%29.97 "Hg19 mi
6:00 PM85 °FSunny.5 mph45%29.97 "Hg19 mi
5:00 PM87 °FPassing clouds.5 mph42%29.97 "Hg19 mi
4:00 PM88 °FPassing clouds.5 mph44%29.98 "Hg19 mi
3:00 PM87 °FPassing clouds.1 mph43%29.99 "Hg19 mi
2:00 PM86 °FPassing clouds.1 mph47%30.01 "Hg16 mi
1:00 PM83 °FSunny.1 mph49%30.03 "Hg12 mi
12:00 PM82 °FSunny.2 mph53%30.04 "Hg12 mi
11:00 AM79 °FSunny.2 mph57%30.05 "Hg12 mi
10:00 AM74 °FSunny.2 mph67%30.06 "Hg10 mi
9:00 AM71 °FSunny.2 mph75%30.05 "Hg10 mi
8:00 AM67 °FSunny.1 mph82%30.05 "Hg9 mi
7:00 AM64 °FSunny.1 mph89%30.06 "Hg7 mi
Weather by CustomWeather, © 2016

See weather overviewHow to use our weather pages